Simultaneous Nadir Overpasses (SNOs) Predictions

Prediction of SNOs between NOAA-19 and TERRA Satellite Orbit:

Table of predicted SNOs for the next 14.0 days since TLE Epoch: 3/15/2019
Index Date (NOAA-19) Time (NOAA-19) Lat,Lon (NOAA-19) SZA (NOAA-19 ) Date (TERRA) Time (TERRA) Lat,Lon (TERRA) SZA (TERRA ) Distance(km) Time Diff (sec)
1 03/16/2019 05:39:53 -78.16, -64.42 99.46 03/16/2019 05:40:46 -78.14, -64.45 99.46 1.72 53
2 03/16/2019 06:30:51 78.12, 103.08 80.51 03/16/2019 06:30:12 78.13, 103.13 80.52 1.93 39
3 03/18/2019 11:13:20 78.17, 32.26 79.69 03/18/2019 11:14:29 78.18, 32.29 79.73 1.90 69
4 03/18/2019 12:04:21 -78.15,-160.42 100.34 03/18/2019 12:03:58 -78.11,-160.39 100.38 4.36 23
5 03/20/2019 17:37:48 78.14, -63.64 78.80 03/20/2019 17:37:41 78.15, -63.66 78.80 0.94 7
6 03/22/2019 23:11:16 -78.15, 33.05 102.06 03/22/2019 23:11:26 -78.18, 33.07 102.03 4.10 10
7 03/25/2019 04:44:45 78.18, 129.59 77.10 03/25/2019 04:45:10 78.18, 129.60 77.10 0.07 25
8 03/25/2019 05:35:44 -78.15, -63.00 102.94 03/25/2019 05:34:38 -78.16, -62.85 102.94 3.59 66
9 03/27/2019 10:18:12 -78.19,-133.77 103.76 03/27/2019 10:18:56 -78.18,-133.85 103.77 2.46 44
10 03/27/2019 11:09:13 78.16, 33.65 76.22 03/27/2019 11:08:22 78.15, 33.68 76.20 1.33 51
11 03/29/2019 15:51:42 78.22, -37.24 75.41 03/29/2019 15:52:39 78.21, -37.11 75.43 3.22 57




NCC Satellite Simultaneous Nadir Overpasses (SNOs) Prediction Service
